{"data":{"norad_id":58520,"epoch":"2026-09-20T22:01:08.970816Z","epoch_age_seconds":110652,"freshness":"FRESH","line1":"1 58520U 23191N   26263.91746494  .00000252  00000+0  18698-4 0  9993","line2":"2 58520  43.0032  80.4885 0002081 284.4640  75.5981 15.27577867155333","mean_motion":15.27577867,"eccentricity":0.0002081,"inclination_deg":43.0032,"raan_deg":80.4885,"arg_perigee_deg":284.464,"mean_anomaly_deg":75.5981,"bstar":1.8698e-5,"rev_number":15533,"period_min":94.266880340968,"perigee_km":481.62766886071,"apogee_km":484.48329717214,"semimajor_km":6861.1924830164,"source":"CELESTRAK","updated_at":"2026-09-21T09:00:33.909179Z"}}